Satellite: NOAA-17
Catalog number: 27453
Epoch time:      11222.97159805
Element set:    0383
Inclination:      098.3764 deg
RA of node:       260.1571 deg
Eccentricity:    0.0011566
Arg of perigee:   354.1149 deg
Mean anomaly:     005.9889 deg
Mean motion:   14.24300033 rev/day
Decay rate:       1.20e-06 rev/day^2
Epoch rev:           47445
Checksum:              296

Satellite: NOAA-18
Catalog number: 28654
Epoch time:      11222.89509857
Element set:    0863
Inclination:      098.9982 deg
RA of node:       174.1877 deg
Eccentricity:    0.0013956
Arg of perigee:   314.9329 deg
Mean anomaly:     045.0691 deg
Mean motion:   14.11500418 rev/day
Decay rate:       -2.7e-07 rev/day^2
Epoch rev:           32064
Checksum:              331

Satellite: NOAA-19
Catalog number: 33591
Epoch time:      11222.90446223
Element set:    0053
Inclination:      098.8270 deg
RA of node:       162.1445 deg
Eccentricity:    0.0013835
Arg of perigee:   177.8435 deg
Mean anomaly:     182.2840 deg
Mean motion:   14.11190645 rev/day
Decay rate:       1.38e-06 rev/day^2
Epoch rev:           12910
Checksum:              281

/EX
SB KEPS @ AMSAT  $ORB11223.M
Orbital Elements  11223.MISC

HR AMSAT ORBITAL ELEMENTS FOR MANNED AND MISCELLANEOUS SATELLITES
FROM WA5QGD FORT WORTH,TX August 11, 2011
Send Subscribe/unsubscribe to KEPS at http://www.amsat.org/mailman/listinfo/kep
BID: ORB11223.M
TO ALL RADIO AMATEURS BT

Satellite: HUBBLE
Catalog number: 20580
Epoch time:      11223.22403858
Element set:     815
Inclination:      028.4708 deg
RA of node:       016.9065 deg
Eccentricity:    0.0003409
Arg of perigee:   350.4558 deg
Mean anomaly:     009.6032 deg
Mean motion:   15.01451603 rev/day
Decay rate:       8.92e-06 rev/day^2
Epoch rev:           96793
Checksum:              280

Satellite: ISS
Catalog number: 25544
Epoch time:      11223.87180348
Element set:     875
Inclination:      051.6401 deg
RA of node:       240.4741 deg
Eccentricity:    0.0012889
Arg of perigee:   067.5492 deg
Mean anomaly:     352.8854 deg
Mean motion:   15.60335249 rev/day
Decay rate:      4.287e-05 rev/day^2
Epoch rev:           72960
Checksum:              314

Satellite: CO-58
Catalog number: 28895
Epoch time:      11222.68209038
Element set:    0947
Inclination:      097.9586 deg
RA of node:       096.9444 deg
Eccentricity:    0.0019038
Arg of perigee:   051.7574 deg
Mean anomaly:     308.5361 deg
Mean motion:   14.60145267 rev/day
Decay rate:       2.09e-06 rev/day^2
Epoch rev:           30819
Checksum:              343

Satellite: FALCON
Catalog number: 30776
Epoch time:      11223.84411780
Element set:     147
Inclination:      035.4340 deg
RA of node:       008.5108 deg
Eccentricity:    0.0001542
Arg of perigee:   248.6273 deg
Mean anomaly:     111.4279 deg
Mean motion:   15.04819054 rev/day
Decay rate:      1.556e-05 rev/day^2
Epoch rev:           24343
Checksum:              265

Satellite: MAST
Catalog number: 31126
Epoch time:      11223.64835284
Element set:     231
Inclination:      097.8937 deg
RA of node:       247.7363 deg
Eccentricity:    0.0094570
Arg of perigee:   358.8199 deg
Mean anomaly:     001.2759 deg
Mean motion:   14.53784261 rev/day
Decay rate:       2.78e-06 rev/day^2
Epoch rev:           22914
Checksum:              320

Satellite: CAPE1
Catalog number: 31130
Epoch time:      11223.61727288
Element set:     245
Inclination:      097.8968 deg
RA of node:       244.3905 deg
Eccentricity:    0.0102546
Arg of perigee:   009.8542 deg
Mean anomaly:     350.4638 deg
Mean motion:   14.52437984 rev/day
Decay rate:       2.74e-06 rev/day^2
Epoch rev:           22868
Checksum:              314

Satellite: COMPASS
Catalog number: 32787
Epoch time:      11223.69189100
Element set:      62
Inclination:      097.8453 deg
RA of node:       286.4667 deg
Eccentricity:    0.0015587
Arg of perigee:   359.7929 deg
Mean anomaly:     000.3247 deg
Mean motion:   14.82534816 rev/day
Decay rate:       8.29e-06 rev/day^2
Epoch rev:           17778
Checksum:              339

Satellite: AAUSAT2
Catalog number: 32788
Epoch time:      11222.70369697
Element set:    0054
Inclination:      097.8446 deg
RA of node:       285.7387 deg
Eccentricity:    0.0015226
Arg of perigee:   002.9670 deg
Mean anomaly:     357.1622 deg
Mean motion:   14.82727053 rev/day
Decay rate:      1.006e-05 rev/day^2
Epoch rev:           17765
Checksum:              318

Satellite: DO-64
Catalog number: 32789
Epoch time:      11222.76225991
Element set:    0069
Inclination:      097.8540 deg
RA of node:       286.9071 deg
Eccentricity:    0.0015102
Arg of perigee:   001.1981 deg
Mean anomaly:     358.9235 deg
Mean motion:   14.83258019 rev/day
Decay rate:      1.657e-05 rev/day^2
Epoch rev:           17767
Checksum:              330

Satellite: CO-66
Catalog number: 32791
Epoch time:      11223.72048014
Element set:      56
Inclination:      097.8468 deg
RA of node:       286.4166 deg
Eccentricity:    0.0015833
Arg of perigee:   359.2236 deg
Mean anomaly:     000.8957 deg
Mean motion:   14.82206067 rev/day
Decay rate:       2.44e-06 rev/day^2
Epoch rev:           17773
Checksum:              315

